| time (UTC) | temp F | wind direction | speed MPH | gust MPH | rain 1hr in | rain 24hr in | rain mn in | humidity % | barometer mb |
| 20260509072355 | 54 | 231 | 0.0 | 0.0 | 0.00 | 0.00 | 0.00 | 75 | 1012.3 |
| 20260509071830 | 54 | 231 | 0.0 | 1.0 | 0.00 | 0.00 | 0.00 | 75 | 1012.3 |
| 20260509071300 | 54 | 231 | 0.0 | 2.0 | 0.00 | 0.00 | 0.00 | 74 | 1012.4 |
| 20260509070758 | 54 | 231 | 0.0 | 2.0 | 0.00 | 0.00 | 0.00 | 74 | 1012.3 |
| 20260509070259 | 54 | 227 | 0.0 | 3.0 | 0.00 | 0.00 | 0.00 | 74 | 1012.3 |
| 20260509065758 | 54 | 228 | 0.0 | 3.0 | 0.00 | 0.00 | 0.00 | 74 | 1012.4 |
| 20260509065235 | 54 | 247 | 0.0 | 0.0 | 0.00 | 0.00 | 0.00 | 72 | 1012.4 |
| 20260509064732 | 54 | 247 | 0.0 | 0.0 | 0.00 | 0.00 | 0.00 | 71 | 1012.4 |
| 20260509064235 | 54 | 247 | 0.0 | 0.0 | 0.00 | 0.00 | 0.00 | 70 | 1012.6 |
| 20260509063709 | 55 | 247 | 0.0 | 0.0 | 0.00 | 0.00 | 0.00 | 69 | 1012.6 |
| 20260509063436 | 55 | 247 | 0.0 | 0.0 | 0.00 | 0.00 | 0.00 | 68 | 1012.7 |
| 20260509062656 | 55 | 247 | 0.0 | 0.0 | 0.00 | 0.00 | 0.00 | 68 | 1012.8 |
| 20260509062156 | 55 | 247 | 0.0 | 0.0 | 0.00 | 0.00 | 0.00 | 67 | 1012.8 |
| 20260509061638 | 56 | 247 | 0.0 | 0.0 | 0.00 | 0.00 | 0.00 | 66 | 1012.8 |
| 20260509061134 | 56 | 247 | 0.0 | 0.0 | 0.00 | 0.00 | 0.00 | 66 | 1012.9 |
| 20260509060637 | 56 | 247 | 0.0 | 0.0 | 0.00 | 0.00 | 0.00 | 65 | 1012.9 |
| 20260509060125 | 57 | 247 | 0.0 | 0.0 | 0.00 | 0.00 | 0.00 | 64 | 1013.0 |
| 20260509055622 | 57 | 247 | 0.0 | 1.0 | 0.00 | 0.00 | 0.00 | 64 | 1012.9 |
| 20260509055056 | 58 | 247 | 0.0 | 1.0 | 0.00 | 0.00 | 0.00 | 63 | 1013.0 |
| 20260509054532 | 58 | 247 | 0.0 | 1.0 | 0.00 | 0.00 | 0.00 | 63 | 1013.0 |
| 20260509054007 | 58 | 176 | 0.0 | 1.0 | 0.00 | 0.00 | 0.00 | 62 | 1013.1 |
| 20260509053508 | 58 | 176 | 0.0 | 3.0 | 0.00 | 0.00 | 0.00 | 62 | 1013.0 |
| 20260509052947 | 59 | 190 | 0.0 | 4.0 | 0.00 | 0.00 | 0.00 | 62 | 1013.0 |
| 20260509052423 | 59 | 124 | 1.0 | 5.0 | 0.00 | 0.00 | 0.00 | 61 | 1013.1 |
| 20260509052129 | 59 | 191 | 1.0 | 5.0 | 0.00 | 0.00 | 0.00 | 61 | 1013.1 |
| 20260509051404 | 59 | 217 | 1.0 | 5.0 | 0.00 | 0.00 | 0.00 | 60 | 1013.2 |
| 20260509050846 | 59 | 161 | 0.0 | 4.0 | 0.00 | 0.00 | 0.00 | 59 | 1013.2 |
| 20260509050609 | 59 | 241 | 0.0 | 4.0 | 0.00 | 0.00 | 0.00 | 59 | 1013.3 |
| 20260509045825 | 59 | 216 | 1.0 | 6.0 | 0.00 | 0.00 | 0.00 | 59 | 1013.2 |
| 20260509045306 | 59 | 219 | 1.0 | 6.0 | 0.00 | 0.00 | 0.00 | 59 | 1013.3 |
| 20260509045010 | 59 | 251 | 1.0 | 5.0 | 0.00 | 0.00 | 0.00 | 58 | 1013.3 |
| 20260509044216 | 59 | 219 | 1.0 | 4.0 | 0.00 | 0.00 | 0.00 | 58 | 1013.3 |
| 20260509043716 | 59 | 216 | 2.0 | 7.0 | 0.00 | 0.00 | 0.00 | 58 | 1013.3 |
| 20260509043150 | 60 | 245 | 2.0 | 7.0 | 0.00 | 0.00 | 0.00 | 57 | 1013.3 |
| 20260509042622 | 60 | 182 | 2.0 | 6.0 | 0.00 | 0.00 | 0.00 | 57 | 1013.3 |
| 20260509042121 | 60 | 200 | 1.0 | 6.0 | 0.00 | 0.00 | 0.00 | 56 | 1013.3 |
| 20260509041553 | 60 | 230 | 1.0 | 6.0 | 0.00 | 0.00 | 0.00 | 56 | 1013.3 |
| 20260509041028 | 60 | 150 | 1.0 | 5.0 | 0.00 | 0.00 | 0.00 | 55 | 1013.3 |
| 20260509040500 | 60 | 166 | 1.0 | 7.0 | 0.00 | 0.00 | 0.00 | 54 | 1013.3 |
| 20260509035936 | 61 | 173 | 2.0 | 7.0 | 0.00 | 0.00 | 0.00 | 53 | 1013.2 |
| 20260509035436 | 61 | 183 | 1.0 | 5.0 | 0.00 | 0.00 | 0.00 | 53 | 1013.3 |
| 20260509034933 | 61 | 234 | 1.0 | 5.0 | 0.00 | 0.00 | 0.00 | 52 | 1013.3 |
| 20260509034405 | 61 | 240 | 0.0 | 3.0 | 0.00 | 0.00 | 0.00 | 52 | 1013.3 |
| 20260509033905 | 61 | 219 | 0.0 | 3.0 | 0.00 | 0.00 | 0.00 | 52 | 1013.4 |
| 20260509033344 | 61 | 211 | 0.0 | 2.0 | 0.00 | 0.00 | 0.00 | 51 | 1013.3 |
| 20260509032823 | 61 | 233 | 0.0 | 2.0 | 0.00 | 0.00 | 0.00 | 51 | 1013.3 |
| 20260509032322 | 61 | 167 | 1.0 | 5.0 | 0.00 | 0.00 | 0.00 | 51 | 1013.4 |
| 20260509031753 | 61 | 202 | 0.0 | 5.0 | 0.00 | 0.00 | 0.00 | 50 | 1013.4 |
| 20260509031249 | 62 | 249 | 0.0 | 2.0 | 0.00 | 0.00 | 0.00 | 51 | 1013.3 |
| 20260509030725 | 62 | 172 | 0.0 | 1.0 | 0.00 | 0.00 | 0.00 | 51 | 1013.2 |
| 20260509030427 | 62 | 153 | 0.0 | 2.0 | 0.00 | 0.00 | 0.00 | 50 | 1013.3 |
| 20260509025659 | 62 | 217 | 1.0 | 4.0 | 0.00 | 0.00 | 0.00 | 50 | 1013.1 |
| 20260509025201 | 62 | 216 | 1.0 | 4.0 | 0.00 | 0.00 | 0.00 | 50 | 1013.0 |
| 20260509024644 | 62 | 217 | 1.0 | 4.0 | 0.00 | 0.00 | 0.00 | 49 | 1013.0 |
| 20260509024144 | 62 | 195 | 1.0 | 4.0 | 0.00 | 0.00 | 0.00 | 49 | 1013.0 |
| 20260509024138 | 62 | 194 | 0.0 | 4.0 | 0.00 | 0.00 | 0.00 | 49 | 1013.0 |
| 20260509023143 | 63 | 234 | 0.0 | 4.0 | 0.00 | 0.00 | 0.00 | 49 | 1013.1 |
| 20260509022908 | 63 | 231 | 1.0 | 4.0 | 0.00 | 0.00 | 0.00 | 49 | 1013.2 |
| 20260509022111 | 63 | 205 | 1.0 | 5.0 | 0.00 | 0.00 | 0.00 | 49 | 1013.2 |
| 20260509021609 | 63 | 200 | 1.0 | 5.0 | 0.00 | 0.00 | 0.00 | 49 | 1013.3 |
| 20260509021104 | 63 | 218 | 0.0 | 4.0 | 0.00 | 0.00 | 0.00 | 49 | 1013.3 |
| 20260509020601 | 63 | 214 | 0.0 | 4.0 | 0.00 | 0.00 | 0.00 | 49 | 1013.2 |
| 20260509020100 | 63 | 226 | 1.0 | 6.0 | 0.00 | 0.00 | 0.00 | 49 | 1013.2 |
| 20260509015556 | 64 | 165 | 1.0 | 6.0 | 0.00 | 0.00 | 0.00 | 48 | 1013.2 |
| 20260509015042 | 64 | 177 | 0.0 | 4.0 | 0.00 | 0.00 | 0.00 | 48 | 1013.1 |
| 20260509014546 | 64 | 150 | 1.0 | 5.0 | 0.00 | 0.00 | 0.00 | 48 | 1013.1 |
| 20260509014020 | 64 | 248 | 1.0 | 5.0 | 0.00 | 0.00 | 0.00 | 48 | 1013.1 |
| 20260509013453 | 64 | 202 | 0.0 | 2.0 | 0.00 | 0.00 | 0.00 | 48 | 1013.1 |
| 20260509013146 | 64 | 212 | 0.0 | 5.0 | 0.00 | 0.00 | 0.00 | 47 | 1013.0 |
| 20260509012424 | 64 | 254 | 0.0 | 5.0 | 0.00 | 0.00 | 0.00 | 47 | 1012.9 |
| 20260509012116 | 64 | 241 | 0.0 | 2.0 | 0.00 | 0.00 | 0.00 | 46 | 1012.8 |
| 20260509011354 | 64 | 214 | 0.0 | 2.0 | 0.00 | 0.00 | 0.00 | 47 | 1012.7 |
| 20260509011059 | 64 | 338 | 0.0 | 2.0 | 0.00 | 0.00 | 0.00 | 47 | 1012.7 |
| 20260509010551 | 64 | 232 | 0.0 | 2.0 | 0.00 | 0.00 | 0.00 | 47 | 1012.6 |
| 20260509010044 | 65 | 201 | 0.0 | 2.0 | 0.00 | 0.00 | 0.00 | 46 | 1012.4 |
| 20260509005256 | 65 | 232 | 0.0 | 1.0 | 0.00 | 0.00 | 0.00 | 45 | 1012.3 |
| 20260509004751 | 65 | 232 | 0.0 | 1.0 | 0.00 | 0.00 | 0.00 | 45 | 1012.2 |
| 20260509004222 | 65 | 232 | 0.0 | 3.0 | 0.00 | 0.00 | 0.00 | 45 | 1012.1 |
| 20260509003721 | 65 | 231 | 0.0 | 2.0 | 0.00 | 0.00 | 0.00 | 45 | 1012.1 |
| 20260509003152 | 65 | 211 | 0.0 | 3.0 | 0.00 | 0.00 | 0.00 | 44 | 1011.9 |
| 20260509002651 | 65 | 246 | 0.0 | 3.0 | 0.00 | 0.00 | 0.00 | 44 | 1011.9 |
| 20260509002122 | 65 | 273 | 0.0 | 4.0 | 0.00 | 0.00 | 0.00 | 44 | 1011.8 |
| 20260509001841 | 65 | 23 | 0.0 | 3.0 | 0.00 | 0.00 | 0.00 | 43 | 1011.8 |
| 20260509001055 | 65 | 210 | 0.0 | 4.0 | 0.00 | 0.00 | 0.00 | 43 | 1011.7 |
| 20260509000526 | 65 | 245 | 0.0 | 4.0 | 0.00 | 0.00 | 0.00 | 43 | 1011.7 |
| 20260509000025 | 65 | 243 | 0.0 | 1.0 | 0.00 | 0.00 | 0.00 | 43 | 1011.8 |
| 20260508235458 | 66 | 243 | 0.0 | 1.0 | 0.00 | 0.00 | 0.00 | 42 | 1011.6 |
| 20260508234932 | 66 | 249 | 0.0 | 2.0 | 0.00 | 0.00 | 0.00 | 42 | 1011.7 |
| 20260508234857 | 66 | 249 | 0.0 | 2.0 | 0.00 | 0.00 | 0.00 | 42 | 1011.6 |
| 20260508233838 | 66 | 229 | 0.0 | 3.0 | 0.00 | 0.00 | 0.00 | 41 | 1011.6 |
| 20260508233310 | 66 | 245 | 0.0 | 3.0 | 0.00 | 0.00 | 0.00 | 42 | 1011.6 |
| 20260508233031 | 66 | 300 | 0.0 | 1.0 | 0.00 | 0.00 | 0.00 | 41 | 1011.6 |
| 20260508232241 | 66 | 302 | 0.0 | 3.0 | 0.00 | 0.00 | 0.00 | 40 | 1011.4 |
| 20260508231742 | 66 | 245 | 1.0 | 3.0 | 0.00 | 0.00 | 0.00 | 40 | 1011.4 |
| 20260508231218 | 66 | 160 | 1.0 | 6.0 | 0.00 | 0.00 | 0.00 | 40 | 1011.3 |
| 20260508230711 | 67 | 173 | 1.0 | 5.0 | 0.00 | 0.00 | 0.00 | 39 | 1011.3 |
| 20260508230434 | 67 | 304 | 0.0 | 3.0 | 0.00 | 0.00 | 0.00 | 39 | 1011.2 |
| 20260508225647 | 67 | 274 | 0.0 | 3.0 | 0.00 | 0.00 | 0.00 | 38 | 1011.3 |
| 20260508225148 | 67 | 255 | 0.0 | 1.0 | 0.00 | 0.00 | 0.00 | 38 | 1011.1 |
| 20260508224644 | 67 | 295 | 0.0 | 1.0 | 0.00 | 0.00 | 0.00 | 37 | 1011.1 |
| 20260508224146 | 67 | 257 | 0.0 | 4.0 | 0.00 | 0.00 | 0.00 | 37 | 1011.1 |
| 20260508223634 | 67 | 326 | 1.0 | 4.0 | 0.00 | 0.00 | 0.00 | 36 | 1011.2 |
| 20260508223133 | 68 | 293 | 0.0 | 3.0 | 0.00 | 0.00 | 0.00 | 36 | 1011.2 |
| 20260508222634 | 68 | 257 | 1.0 | 6.0 | 0.00 | 0.00 | 0.00 | 36 | 1011.1 |
| 20260508222120 | 68 | 248 | 1.0 | 6.0 | 0.00 | 0.00 | 0.00 | 35 | 1011.2 |
| 20260508221617 | 68 | 321 | 1.0 | 3.0 | 0.00 | 0.00 | 0.00 | 36 | 1011.1 |
| 20260508221118 | 68 | 238 | 1.0 | 3.0 | 0.00 | 0.00 | 0.00 | 35 | 1011.0 |
| 20260508220617 | 68 | 243 | 1.0 | 4.0 | 0.00 | 0.00 | 0.00 | 34 | 1011.1 |
| 20260508220100 | 68 | 292 | 1.0 | 5.0 | 0.00 | 0.00 | 0.00 | 34 | 1011.1 |
| 20260508215533 | 68 | 280 | 1.0 | 5.0 | 0.00 | 0.00 | 0.00 | 34 | 1011.2 |
| 20260508215010 | 68 | 303 | 1.0 | 6.0 | 0.00 | 0.00 | 0.00 | 34 | 1011.1 |
| 20260508214708 | 68 | 305 | 1.0 | 6.0 | 0.00 | 0.00 | 0.00 | 35 | 1011.2 |
| 20260508213917 | 68 | 241 | 1.0 | 6.0 | 0.00 | 0.00 | 0.00 | 34 | 1011.0 |
| 20260508213357 | 68 | 293 | 1.0 | 7.0 | 0.00 | 0.00 | 0.00 | 34 | 1011.0 |
| 20260508212829 | 68 | 296 | 1.0 | 7.0 | 0.00 | 0.00 | 0.00 | 35 | 1010.9 |
| 20260508212328 | 69 | 192 | 1.0 | 5.0 | 0.00 | 0.00 | 0.00 | 33 | 1010.9 |
| 20260508211825 | 69 | 124 | 0.0 | 5.0 | 0.00 | 0.00 | 0.00 | 35 | 1010.9 |
| 20260508211327 | 69 | 217 | 0.0 | 3.0 | 0.00 | 0.00 | 0.00 | 35 | 1011.0 |
| 20260508210801 | 69 | 203 | 2.0 | 7.0 | 0.00 | 0.00 | 0.00 | 35 | 1011.0 |
| 20260508210309 | 69 | 320 | 2.0 | 7.0 | 0.00 | 0.00 | 0.00 | 34 | 1011.0 |
| 20260508205758 | 69 | 281 | 2.0 | 10.0 | 0.00 | 0.00 | 0.00 | 34 | 1011.2 |
| 20260508205451 | 69 | 340 | 3.0 | 12.0 | 0.00 | 0.00 | 0.00 | 32 | 1011.1 |
| 20260508204933 | 70 | 298 | 3.0 | 11.0 | 0.00 | 0.00 | 0.00 | 32 | 1011.2 |
| 20260508204149 | 70 | 307 | 3.0 | 11.0 | 0.00 | 0.00 | 0.00 | 32 | 1011.2 |
| 20260508203650 | 70 | 305 | 2.0 | 9.0 | 0.00 | 0.00 | 0.00 | 33 | 1011.2 |
| 20260508203122 | 69 | 240 | 2.0 | 9.0 | 0.00 | 0.00 | 0.00 | 33 | 1011.3 |
| 20260508202843 | 68 | 328 | 2.0 | 8.0 | 0.00 | 0.00 | 0.00 | 35 | 1011.3 |
| 20260508202111 | 68 | 274 | 3.0 | 8.0 | 0.00 | 0.00 | 0.00 | 33 | 1011.3 |
| 20260508201608 | 69 | 291 | 3.0 | 9.0 | 0.00 | 0.00 | 0.00 | 33 | 1011.4 |
| 20260508201044 | 69 | 287 | 2.0 | 7.0 | 0.00 | 0.00 | 0.00 | 33 | 1011.5 |
| 20260508200539 | 69 | 284 | 2.0 | 9.0 | 0.00 | 0.00 | 0.00 | 36 | 1011.5 |
| 20260508200038 | 69 | 325 | 3.0 | 9.0 | 0.00 | 0.00 | 0.00 | 33 | 1011.5 |
| 20260508195733 | 69 | 250 | 2.0 | 9.0 | 0.00 | 0.00 | 0.00 | 33 | 1011.6 |
| 20260508194941 | 69 | 252 | 2.0 | 9.0 | 0.00 | 0.00 | 0.00 | 35 | 1011.6 |
| 20260508194702 | 68 | 323 | 2.0 | 8.0 | 0.00 | 0.00 | 0.00 | 35 | 1011.7 |
| 20260508194136 | 68 | 280 | 2.0 | 5.0 | 0.00 | 0.00 | 0.00 | 35 | 1011.8 |
| 20260508193410 | 68 | 304 | 2.0 | 8.0 | 0.00 | 0.00 | 0.00 | 35 | 1011.8 |
| 20260508192908 | 68 | 293 | 3.0 | 8.0 | 0.00 | 0.00 | 0.00 | 35 | 1012.0 |
| 20260508192339 | 68 | 4 | 3.0 | 11.0 | 0.00 | 0.00 | 0.00 | 34 | 1011.8 |
| 20260508191835 | 69 | 330 | 3.0 | 11.0 | 0.00 | 0.00 | 0.00 | 33 | 1011.9 |
| 20260508191333 | 69 | 286 | 3.0 | 8.0 | 0.00 | 0.00 | 0.00 | 33 | 1011.7 |
| 20260508191056 | 69 | 298 | 3.0 | 10.0 | 0.00 | 0.00 | 0.00 | 33 | 1011.8 |
| 20260508190303 | 69 | 301 | 4.0 | 10.0 | 0.00 | 0.00 | 0.00 | 33 | 1012.0 |
| 20260508190032 | 69 | 264 | 4.0 | 10.0 | 0.00 | 0.00 | 0.00 | 32 | 1011.9 |
| 20260508185233 | 69 | 291 | 4.0 | 10.0 | 0.00 | 0.00 | 0.00 | 32 | 1011.8 |
| 20260508184732 | 69 | 266 | 3.0 | 10.0 | 0.00 | 0.00 | 0.00 | 33 | 1011.9 |
| 20260508184203 | 69 | 241 | 3.0 | 12.0 | 0.00 | 0.00 | 0.00 | 34 | 1012.0 |
| 20260508183701 | 68 | 276 | 3.0 | 12.0 | 0.00 | 0.00 | 0.00 | 32 | 1012.1 |
| 20260508183157 | 68 | 280 | 3.0 | 13.0 | 0.00 | 0.00 | 0.00 | 33 | 1012.3 |
| 20260508182656 | 67 | 344 | 3.0 | 13.0 | 0.00 | 0.00 | 0.00 | 32 | 1012.3 |
| 20260508182351 | 68 | 278 | 3.0 | 11.0 | 0.00 | 0.00 | 0.00 | 32 | 1012.3 |
| 20260508181603 | 69 | 334 | 3.0 | 11.0 | 0.00 | 0.00 | 0.00 | 33 | 1012.4 |
| 20260508181320 | 68 | 331 | 3.0 | 10.0 | 0.00 | 0.00 | 0.00 | 36 | 1012.3 |
| 20260508180535 | 68 | 201 | 3.0 | 10.0 | 0.00 | 0.00 | 0.00 | 36 | 1012.4 |
| 20260508180006 | 67 | 329 | 3.0 | 9.0 | 0.00 | 0.00 | 0.00 | 34 | 1012.4 |
| 20260508175504 | 67 | 223 | 3.0 | 13.0 | 0.00 | 0.00 | 0.00 | 34 | 1012.4 |
| 20260508174937 | 67 | 297 | 4.0 | 13.0 | 0.00 | 0.00 | 0.00 | 35 | 1012.6 |
| 20260508174432 | 68 | 317 | 4.0 | 14.0 | 0.00 | 0.00 | 0.00 | 34 | 1012.6 |
| 20260508174153 | 68 | 289 | 3.0 | 14.0 | 0.00 | 0.00 | 0.00 | 34 | 1012.7 |
| 20260508173428 | 68 | 249 | 3.0 | 12.0 | 0.00 | 0.00 | 0.00 | 36 | 1012.6 |
| 20260508172925 | 68 | 237 | 2.0 | 9.0 | 0.00 | 0.00 | 0.00 | 34 | 1012.5 |
| 20260508172422 | 68 | 315 | 2.0 | 8.0 | 0.00 | 0.00 | 0.00 | 36 | 1012.5 |
| 20260508171916 | 68 | 248 | 3.0 | 16.0 | 0.00 | 0.00 | 0.00 | 34 | 1012.6 |
| 20260508171350 | 68 | 309 | 3.0 | 16.0 | 0.00 | 0.00 | 0.00 | 36 | 1012.7 |
| 20260508171105 | 67 | 250 | 3.0 | 8.0 | 0.00 | 0.00 | 0.00 | 34 | 1012.6 |
| 20260508170341 | 67 | 287 | 3.0 | 11.0 | 0.00 | 0.00 | 0.00 | 35 | 1012.8 |
| 20260508165838 | 66 | 332 | 3.0 | 11.0 | 0.00 | 0.00 | 0.00 | 33 | 1012.8 |
| 20260508165334 | 66 | 259 | 3.0 | 9.0 | 0.00 | 0.00 | 0.00 | 36 | 1012.7 |
| 20260508164834 | 66 | 17 | 4.0 | 15.0 | 0.00 | 0.00 | 0.00 | 34 | 1012.9 |
| 20260508164332 | 65 | 292 | 3.0 | 15.0 | 0.00 | 0.00 | 0.00 | 37 | 1013.0 |
| 20260508163804 | 65 | 316 | 3.0 | 13.0 | 0.00 | 0.00 | 0.00 | 36 | 1013.0 |
| 20260508163235 | 65 | 265 | 4.0 | 16.0 | 0.00 | 0.00 | 0.00 | 36 | 1013.1 |
| 20260508162732 | 64 | 309 | 5.0 | 16.0 | 0.00 | 0.00 | 0.00 | 36 | 1013.3 |
| 20260508162440 | 65 | 249 | 5.0 | 12.0 | 0.00 | 0.00 | 0.00 | 36 | 1013.4 |
| 20260508161659 | 64 | 318 | 5.0 | 13.0 | 0.00 | 0.00 | 0.00 | 36 | 1013.5 |
| 20260508161158 | 65 | 308 | 3.0 | 13.0 | 0.00 | 0.00 | 0.00 | 35 | 1013.7 |
| 20260508160629 | 65 | 308 | 2.0 | 8.0 | 0.00 | 0.00 | 0.00 | 37 | 1013.7 |
| 20260508160128 | 64 | 187 | 3.0 | 11.0 | 0.00 | 0.00 | 0.00 | 38 | 1013.9 |
| 20260508155559 | 64 | 325 | 3.0 | 11.0 | 0.00 | 0.00 | 0.00 | 37 | 1014.0 |
| 20260508155056 | 64 | 313 | 2.0 | 8.0 | 0.00 | 0.00 | 0.00 | 37 | 1014.0 |
| 20260508154526 | 64 | 119 | 2.0 | 8.0 | 0.00 | 0.00 | 0.00 | 38 | 1014.1 |
| 20260508154005 | 63 | 18 | 2.0 | 9.0 | 0.00 | 0.00 | 0.00 | 37 | 1014.2 |
| 20260508153506 | 63 | 203 | 2.0 | 9.0 | 0.00 | 0.00 | 0.00 | 39 | 1014.1 |
| 20260508153005 | 63 | 40 | 2.0 | 6.0 | 0.00 | 0.00 | 0.00 | 39 | 1014.3 |
| 20260508152500 | 62 | 290 | 2.0 | 8.0 | 0.00 | 0.00 | 0.00 | 38 | 1014.2 |
| 20260508151959 | 62 | 278 | 2.0 | 8.0 | 0.00 | 0.00 | 0.00 | 40 | 1014.4 |
| 20260508151722 | 62 | 236 | 2.0 | 9.0 | 0.00 | 0.00 | 0.00 | 39 | 1014.4 |
| 20260508151011 | 62 | 214 | 2.0 | 9.0 | 0.00 | 0.00 | 0.00 | 38 | 1014.4 |
| 20260508150437 | 62 | 312 | 2.0 | 7.0 | 0.00 | 0.00 | 0.00 | 42 | 1014.5 |
| 20260508145937 | 62 | 105 | 1.0 | 4.0 | 0.00 | 0.00 | 0.00 | 40 | 1014.4 |
| 20260508145411 | 61 | 209 | 1.0 | 4.0 | 0.00 | 0.00 | 0.00 | 41 | 1014.5 |
| 20260508144914 | 61 | 259 | 1.0 | 7.0 | 0.00 | 0.00 | 0.00 | 40 | 1014.5 |
| 20260508144356 | 62 | 232 | 2.0 | 7.0 | 0.00 | 0.00 | 0.00 | 39 | 1014.4 |
| 20260508144105 | 62 | 252 | 2.0 | 5.0 | 0.00 | 0.00 | 0.00 | 39 | 1014.5 |
| 20260508143345 | 63 | 262 | 1.0 | 5.0 | 0.00 | 0.00 | 0.00 | 38 | 1014.4 |
| 20260508142842 | 62 | 214 | 1.0 | 6.0 | 0.00 | 0.00 | 0.00 | 38 | 1014.4 |
| 20260508142340 | 62 | 299 | 1.0 | 6.0 | 0.00 | 0.00 | 0.00 | 39 | 1014.5 |
| 20260508141817 | 62 | 265 | 1.0 | 5.0 | 0.00 | 0.00 | 0.00 | 39 | 1014.4 |
| 20260508141250 | 61 | 259 | 1.0 | 5.0 | 0.00 | 0.00 | 0.00 | 41 | 1014.5 |
| 20260508141017 | 61 | 330 | 1.0 | 5.0 | 0.00 | 0.00 | 0.00 | 39 | 1014.5 |
| 20260508140229 | 61 | 257 | 1.0 | 4.0 | 0.00 | 0.00 | 0.00 | 42 | 1014.5 |
| 20260508135708 | 61 | 302 | 1.0 | 4.0 | 0.00 | 0.00 | 0.00 | 41 | 1014.6 |
| 20260508135207 | 60 | 297 | 1.0 | 4.0 | 0.00 | 0.00 | 0.00 | 42 | 1014.6 |
| 20260508134641 | 60 | 198 | 0.0 | 3.0 | 0.00 | 0.00 | 0.00 | 46 | 1014.7 |
| 20260508134117 | 60 | 319 | 1.0 | 4.0 | 0.00 | 0.00 | 0.00 | 47 | 1014.6 |
| 20260508133554 | 59 | 321 | 1.0 | 5.0 | 0.00 | 0.00 | 0.00 | 46 | 1014.6 |
| 20260508133028 | 59 | 297 | 1.0 | 5.0 | 0.00 | 0.00 | 0.00 | 43 | 1014.7 |
| 20260508132752 | 59 | 290 | 1.0 | 5.0 | 0.00 | 0.00 | 0.00 | 42 | 1014.7 |
| 20260508132002 | 59 | 253 | 1.0 | 5.0 | 0.00 | 0.00 | 0.00 | 45 | 1014.7 |
| 20260508131502 | 58 | 270 | 2.0 | 5.0 | 0.00 | 0.00 | 0.00 | 46 | 1014.7 |
| 20260508130938 | 58 | 266 | 2.0 | 7.0 | 0.00 | 0.00 | 0.00 | 45 | 1014.7 |
| 20260508130436 | 58 | 226 | 1.0 | 7.0 | 0.00 | 0.00 | 0.00 | 48 | 1014.9 |
| 20260508125936 | 58 | 307 | 1.0 | 8.0 | 0.00 | 0.00 | 0.00 | 49 | 1014.8 |
| 20260508125432 | 57 | 243 | 2.0 | 8.0 | 0.00 | 0.00 | 0.00 | 49 | 1014.9 |
| 20260508125356 | 57 | 259 | 1.0 | 5.0 | 0.00 | 0.00 | 0.00 | 48 | 1014.9 |
| 20260508124340 | 57 | 312 | 1.0 | 8.0 | 0.00 | 0.00 | 0.00 | 50 | 1014.8 |
| 20260508123839 | 57 | 300 | 1.0 | 8.0 | 0.00 | 0.00 | 0.00 | 53 | 1014.8 |
| 20260508123315 | 56 | 285 | 0.0 | 3.0 | 0.00 | 0.00 | 0.00 | 54 | 1014.7 |
| 20260508123307 | 56 | 252 | 0.0 | 3.0 | 0.00 | 0.00 | 0.00 | 56 | 1014.6 |
| 20260508122529 | 56 | 294 | 1.0 | 6.0 | 0.00 | 0.00 | 0.00 | 57 | 1014.6 |
| 20260508121803 | 55 | 317 | 1.0 | 6.0 | 0.00 | 0.00 | 0.00 | 56 | 1014.6 |
| 20260508121237 | 55 | 317 | 0.0 | 5.0 | 0.00 | 0.00 | 0.00 | 59 | 1014.6 |
| 20260508120711 | 54 | 352 | 1.0 | 5.0 | 0.00 | 0.00 | 0.00 | 60 | 1014.6 |
| 20260508120155 | 54 | 305 | 1.0 | 6.0 | 0.00 | 0.00 | 0.00 | 61 | 1014.6 |
| 20260508115636 | 53 | 269 | 1.0 | 6.0 | 0.00 | 0.00 | 0.00 | 61 | 1014.5 |
| 20260508115134 | 53 | 294 | 0.0 | 3.0 | 0.00 | 0.00 | 0.00 | 62 | 1014.4 |
| 20260508114609 | 53 | 302 | 0.0 | 4.0 | 0.00 | 0.00 | 0.00 | 64 | 1014.6 |
| 20260508114053 | 52 | 290 | 0.0 | 4.0 | 0.00 | 0.00 | 0.00 | 65 | 1014.5 |
| 20260508113815 | 52 | 314 | 0.0 | 4.0 | 0.00 | 0.00 | 0.00 | 67 | 1014.4 |
| 20260508113028 | 51 | 287 | 0.0 | 3.0 | 0.00 | 0.00 | 0.00 | 68 | 1014.3 |
| 20260508112525 | 51 | 257 | 0.0 | 6.0 | 0.00 | 0.00 | 0.00 | 69 | 1014.3 |
| 20260508112217 | 50 | 303 | 0.0 | 6.0 | 0.00 | 0.00 | 0.00 | 70 | 1014.3 |
| 20260508111431 | 50 | 320 | 0.0 | 3.0 | 0.00 | 0.00 | 0.00 | 70 | 1014.3 |
| 20260508110930 | 49 | 287 | 0.0 | 3.0 | 0.00 | 0.00 | 0.00 | 71 | 1014.2 |
| 20260508110401 | 49 | 304 | 1.0 | 5.0 | 0.00 | 0.00 | 0.00 | 72 | 1014.2 |
| 20260508105859 | 48 | 323 | 1.0 | 5.0 | 0.00 | 0.00 | 0.00 | 72 | 1014.2 |
| 20260508105332 | 48 | 269 | 1.0 | 4.0 | 0.00 | 0.00 | 0.00 | 73 | 1014.2 |
| 20260508104830 | 47 | 314 | 1.0 | 6.0 | 0.00 | 0.00 | 0.00 | 74 | 1013.9 |
| 20260508104303 | 47 | 322 | 1.0 | 6.0 | 0.00 | 0.00 | 0.00 | 75 | 1013.9 |
| 20260508103734 | 47 | 314 | 1.0 | 4.0 | 0.00 | 0.00 | 0.00 | 75 | 1013.8 |
| 20260508103233 | 47 | 293 | 0.0 | 3.0 | 0.00 | 0.00 | 0.00 | 75 | 1013.9 |
| 20260508102704 | 47 | 297 | 0.0 | 3.0 | 0.00 | 0.00 | 0.00 | 75 | 1013.9 |
| 20260508102206 | 47 | 291 | 1.0 | 4.0 | 0.00 | 0.00 | 0.00 | 75 | 1013.9 |
| 20260508101631 | 47 | 276 | 0.0 | 2.0 | 0.00 | 0.00 | 0.00 | 75 | 1013.9 |
| 20260508101121 | 47 | 314 | 0.0 | 2.0 | 0.00 | 0.00 | 0.00 | 76 | 1013.8 |
| 20260508100602 | 47 | 272 | 0.0 | 4.0 | 0.00 | 0.00 | 0.00 | 75 | 1013.7 |
| 20260508095559 | 47 | 294 | 0.0 | 5.0 | 0.00 | 0.00 | 0.00 | 75 | 1013.6 |
| 20260508095056 | 47 | 314 | 0.0 | 3.0 | 0.00 | 0.00 | 0.00 | 75 | 1013.6 |
| 20260508094820 | 47 | 300 | 0.0 | 3.0 | 0.00 | 0.00 | 0.00 | 75 | 1013.5 |
| 20260508094324 | 47 | 289 | 0.0 | 2.0 | 0.00 | 0.00 | 0.00 | 75 | 1013.6 |
| 20260508093531 | 47 | 279 | 0.0 | 4.0 | 0.00 | 0.00 | 0.00 | 74 | 1013.6 |
| 20260508093005 | 47 | 289 | 0.0 | 4.0 | 0.00 | 0.00 | 0.00 | 74 | 1013.4 |
| 20260508092457 | 47 | 283 | 0.0 | 4.0 | 0.00 | 0.00 | 0.00 | 74 | 1013.4 |
| 20260508091955 | 47 | 301 | 0.0 | 4.0 | 0.00 | 0.00 | 0.00 | 74 | 1013.4 |
| 20260508091427 | 47 | 303 | 0.0 | 1.0 | 0.00 | 0.00 | 0.00 | 74 | 1013.4 |
| 20260508091148 | 48 | 283 | 0.0 | 1.0 | 0.00 | 0.00 | 0.00 | 73 | 1013.4 |
| 20260508090645 | 48 | 283 | 0.0 | 1.0 | 0.00 | 0.00 | 0.00 | 73 | 1013.3 |
| 20260508085920 | 48 | 292 | 0.0 | 1.0 | 0.00 | 0.00 | 0.00 | 72 | 1013.3 |
| 20260508085354 | 48 | 293 | 0.0 | 1.0 | 0.00 | 0.00 | 0.00 | 72 | 1013.3 |
| 20260508084848 | 49 | 293 | 0.0 | 2.0 | 0.00 | 0.00 | 0.00 | 71 | 1013.3 |
| 20260508084346 | 49 | 303 | 0.0 | 2.0 | 0.00 | 0.01 | 0.00 | 71 | 1013.1 |
| 20260508083842 | 49 | 300 | 0.0 | 1.0 | 0.00 | 0.01 | 0.00 | 70 | 1013.0 |
| 20260508083315 | 49 | 288 | 0.0 | 3.0 | 0.00 | 0.01 | 0.00 | 69 | 1013.0 |
| 20260508082813 | 50 | 283 | 0.0 | 3.0 | 0.00 | 0.01 | 0.00 | 69 | 1012.9 |
| 20260508082247 | 50 | 278 | 0.0 | 3.0 | 0.00 | 0.01 | 0.00 | 68 | 1012.8 |
| 20260508081722 | 51 | 305 | 0.0 | 3.0 | 0.00 | 0.01 | 0.00 | 67 | 1012.7 |
| 20260508081155 | 51 | 282 | 1.0 | 9.0 | 0.00 | 0.01 | 0.00 | 67 | 1012.6 |
| 20260508081138 | 51 | 285 | 1.0 | 9.0 | 0.00 | 0.01 | 0.00 | 67 | 1012.5 |
| 20260508080151 | 51 | 284 | 1.0 | 7.0 | 0.00 | 0.01 | 0.00 | 66 | 1012.5 |
| 20260508075622 | 51 | 6 | 1.0 | 3.0 | 0.00 | 0.01 | 0.00 | 66 | 1012.3 |
| 20260508075124 | 51 | 282 | 1.0 | 6.0 | 0.00 | 0.01 | 0.00 | 66 | 1012.2 |
| 20260508074556 | 51 | 273 | 1.0 | 6.0 | 0.00 | 0.01 | 0.00 | 66 | 1012.1 |
| 20260508074320 | 51 | 311 | 1.0 | 5.0 | 0.00 | 0.01 | 0.00 | 66 | 1012.0 |
| 20260508073532 | 52 | 284 | 1.0 | 5.0 | 0.00 | 0.01 | 0.00 | 66 | 1011.9 |
| 20260508073033 | 52 | 296 | 1.0 | 5.0 | 0.00 | 0.01 | 0.00 | 66 | 1011.9 |
| 20260508072731 | 52 | 301 | 1.0 | 8.0 | 0.00 | 0.01 | 0.00 | 67 | 1011.8 |